[[{"header":{"parameterUnit":"m.s-1","parameterCategory":1,"la1":30.2991,"la2":30.254,"lo1":-89.0895,"lo2":-89.0444,"dy":0.0017,"dx":0.0017,"nx":28,"ny":28,"refTime":"2025-01-04T03:00:00:Z","depth":0,"parameterNumber":2,"parameterNumberName":"U-component_of_WINDS"},"data":[0,0,0,0,0,0,0,0,0,0,0,0,0,0,0,0,0,0,0,0,0,0,0,0,0,0,0,0,0,0,0,0,0,0,0,0,0,0,0,0,0,0,0,0,0,0,0,0,0,0,0,0,0,0,0,0,0,0,-6.9044,-6.9045,0,-6.9081,-6.9082,-6.9082,-6.8947,-6.8943,-6.8939,-6.8935,-6.8972,-6.8977,-6.8982,0,0,0,0,0,0,0,0,0,0,0,0,0,-6.8855,-6.8859,-6.9044,-6.9045,-6.9045,-6.9081,-6.9082,-6.9082,-6.8948,-6.8943,-6.8938,-6.8934,-6.8971,-6.8976,-6.8982,0,0,0,0,0,0,0,0,0,0,0,0,0,-6.8919,-6.886,-6.9044,-6.8983,-6.8977,-6.9081,-6.9082,-6.9082,-6.8949,-6.8943,-6.8937,-6.8931,-6.8969,-6.8976,-6.8983,-6.9147,0,0,-6.9004,-6.9008,0,0,0,0,0,0,0,0,-6.8916,-6.8926,-6.8991,-6.8987,-6.8981,-6.9003,-6.9028,-6.9104,-6.895,-6.896,-6.8935,-6.8928,-6.8987,-6.8993,-6.9013,-6.9149,-6.9151,-6.9005,-6.9009,-6.9012,-6.9014,0,0,0,0,0,0,0,-6.8911,-6.8924,-6.9059,-6.8992,-6.8986,-6.8952,-6.8955,-6.9042,-6.9007,-6.8958,-6.8949,-6.8955,-6.8984,-6.9006,-6.9013,-6.9151,-6.9005,-6.9011,-6.9016,-6.9018,-6.9421,-6.9428,0,0,0,0,0,0,-6.8915,-6.8921,-6.9058,-6.906,-6.8933,-6.8961,-6.8963,-6.9003,-6.9006,-6.9,-6.896,-6.8949,-6.8997,-6.9005,-6.9014,-6.9204,-6.9012,-6.9019,-6.9023,-6.9415,-6.9423,-6.943,0,0,0,0,0,0,-6.8912,-6.8929,-6.9056,-6.8988,-6.9002,-6.897,-6.9015,-6.9006,-6.9029,-6.9007,-6.9,-6.899,-6.8993,-6.9003,-6.9114,-6.9203,-6.9022,-6.9029,-6.9407,-6.9417,-6.9426,-6.9587,0,0,0,0,0,0,-6.8907,-6.8928,-6.8991,-6.899,-6.9006,-6.9158,-6.9021,-6.9012,-6.9042,-6.9027,-6.9033,-6.9028,-6.8989,-6.9105,-6.9122,-6.921,-6.9034,-6.9399,-6.9412,-6.9423,-6.9574,-6.9601,-6.9625,0,0,0,0,0,-6.8901,-6.9035,-6.8995,-6.9012,-6.9084,-6.9163,-6.9172,-6.9124,-6.905,-6.9111,-6.9097,-6.9028,-6.9192,-6.9117,-6.9135,-6.9227,-6.9393,-6.9408,-6.9422,-6.9563,-6.9596,-6.9624,0,0,0,0,0,0,-6.9047,-6.9034,-6.8989,-6.9128,-6.9148,-6.914,-6.9217,-6.9161,-6.9202,-6.9187,-6.9126,-6.9128,-6.9249,-6.9249,-6.9167,-6.9385,-6.9279,-6.9298,-6.938,-6.9411,-6.9436,-6.9432,-6.904,0,0,0,0,0,-6.9096,-6.9162,-6.9147,-6.9271,-6.9283,-6.9249,-6.9282,-6.9243,-6.9261,-6.9269,-6.9262,-6.9282,-6.9337,-6.9375,-6.9425,-6.9574,-6.9572,-6.9646,-6.9672,-6.9693,-6.9709,-6.9785,-6.9816,-6.9478,-6.9477,-6.9477,0,0,-6.9197,-6.9198,-6.9243,-6.93,-6.9311,-6.9379,-6.9257,-6.9335,-6.9385,-6.928,-6.9383,-6.9381,-6.9398,-6.9528,-6.9585,-6.9532,-6.9802,-6.9711,-6.9728,-6.9732,-6.9803,-6.9835,-6.9864,-6.9487,-6.9486,-6.9484,0,0,-6.9414,-6.9423,-6.9526,-6.9539,-6.9557,-6.9533,-6.9558,-6.9559,-6.9553,-6.9656,-6.9578,-6.9637,-6.9734,-6.9749,-6.9769,-6.9993,-6.9929,-7.0011,-7.0142,-7.0217,-7.0244,-7.0267,-7.0344,-7.0372,-7.0027,-7.0028,-7.0028,0,-6.9537,-6.9637,-6.9586,-6.9669,-6.9695,-6.9604,-6.9706,-6.9722,-6.9755,-6.9775,-6.9715,-6.9834,-6.984,-6.9971,-7.0025,-7.0046,-7.0071,-7.0008,-7.0245,-7.0267,-7.0288,-7.036,-7.039,-7.0037,-7.0036,-7.0035,-7.0034,0,-6.9786,-6.9857,-6.9938,-6.9971,-7.0007,-7.01,-7.0061,-7.0104,-7.0063,-7.0045,-7.015,-7.0154,-7.0202,-7.0231,-7.0192,-7.0356,-7.0322,-7.0255,-7.0147,-7.0331,-7.0398,-7.0425,-7.0051,-7.0048,-7.0045,-7.0042,0,0,-7.0095,-7.0099,-7.0129,-7.0142,-7.0155,-7.0209,-7.0297,-7.0344,-7.038,-7.0407,-7.0477,-7.0562,-7.0499,-7.0522,-7.0484,-7.0551,-7.0723,-7.0474,-7.0474,-7.0518,-7.0901,-7.0949,-7.0982,-7.0683,-7.0688,-7.0692,-7.0899,0,-7.0306,-7.0456,-7.0411,-7.0562,-7.0625,-7.054,-7.0617,-7.0632,-7.0619,-7.067,-7.0655,-7.0714,-7.0629,-7.0642,-7.0704,-7.0689,-7.0799,-7.0674,-7.0745,-7.0749,-7.074,-7.1018,-7.1069,-7.1263,-7.0925,-7.0929,-7.0932,0,-7.0571,-7.0608,-7.0765,-7.0765,-7.079,-7.086,-7.0898,-7.0949,-7.0965,-7.095,-7.0976,-7.0924,-7.1009,-7.0904,-7.1018,-7.0934,-7.0961,-7.0959,-7.0965,-7.0967,-7.0849,-7.1024,-7.1324,-7.1352,-7.0973,-7.097,-7.0967,0,-7.0777,-7.0865,-7.0969,-7.0984,-7.0988,-7.1039,-7.1043,-7.1053,-7.1083,-7.1117,-7.1136,-7.118,-7.1203,-7.1238,-7.1198,-7.1126,-7.1318,-7.121,-7.1306,-7.1307,-7.1347,-7.1345,-7.1653,-7.1372,-7.1371,-7.1371,-7.137,0,-7.1015,-7.1113,-7.1061,-7.1125,-7.1232,-7.1181,-7.1288,-7.1283,-7.1292,-7.1352,-7.1283,-7.1341,-7.1287,-7.134,-7.131,-7.1408,-7.142,-7.1409,-7.1399,-7.1413,-7.1414,-7.1427,-7.1411,-7.1378,-7.1376,-7.1375,-7.1374,0,-7.126,-7.123,-7.1338,-7.1333,-7.1334,-7.1413,-7.1408,-7.1467,-7.1449,-7.1526,-7.1541,-7.1512,-7.157,-7.1535,-7.1596,-7.1575,-7.1702,-7.1675,-7.1696,-7.1687,-7.1784,-7.1774,-7.2109,-7.2148,-7.1845,-7.1848,-7.185,0,-7.1412,-7.1486,-7.1489,-7.1525,-7.1533,-7.1592,-7.1622,-7.1575,-7.1609,-7.1632,-7.1687,-7.174,-7.1779,-7.1876,-7.186,-7.1905,-7.1877,-7.1991,-7.1883,-7.1894,-7.1874,-7.1868,-7.1874,-7.2012,-7.2015,-7.2018,-7.2021,0,-7.1684,-7.1665,-7.1712,-7.1754,-7.1793,-7.1823,-7.1848,-7.1881,-7.1833,-7.1876,-7.1935,-7.1965,-7.2026,-7.2078,-7.2116,-7.2119,-7.2062,-7.2055,-7.2079,-7.2092,-7.21,-7.2093,-7.1751,-7.2047,-7.2044,-7.2042,-7.2041,-7.204,-7.1885,-7.1945,-7.1956,-7.201,-7.2024,-7.2049,-7.2102,-7.2091,-7.2139,-7.2185,-7.2154,-7.2223,-7.2236,-7.2281,-7.2291,-7.2344,-7.2297,-7.2333,-7.2341,-7.2349,-7.2361,-7.2095,-7.2351,-7.235,-7.2349,-7.2349,-7.2348,0,-7.2149,-7.2152,-7.2203,-7.224,-7.2282,-7.2226,-7.225,-7.2289,-7.235,-7.2367,-7.2407,-7.2474,-7.2524,-7.2513,-7.2557,-7.2602,-7.2576,-7.2615,-7.2609,-7.261,-7.2402,-7.2375,-7.2634,-7.2634,-7.2634,-7.2634,-7.2634,-7.2634,-7.2292,-7.239,-7.2373,-7.2476,-7.2478,-7.2545,-7.2564,-7.2585,-7.2598,-7.2676,-7.2717,-7.271,-7.2714,-7.2759,-7.2802,-7.2797,-7.2815,-7.2863,-7.2848,-7.2653,-7.2625,-7.2598,-7.2572,-7.2868,-7.2869,-7.3051,-7.3052,-7.3054]},{"header":{"parameterUnit":"m.s-1","parameterCategory":1,"la1":30.2991,"la2":30.254,"lo1":-89.0895,"lo2":-89.0444,"dy":0.0017,"dx":0.0017,"nx":28,"ny":28,"refTime":"2025-01-04T03:00:00:Z","depth":0,"parameterNumber":3,"parameterNumberName":"V-component_of_WINDS"},"data":[0,0,0,0,0,0,0,0,0,0,0,0,0,0,0,0,0,0,0,0,0,0,0,0,0,0,0,0,0,0,0,0,0,0,0,0,0,0,0,0,0,0,0,0,0,0,0,0,0,0,0,0,0,0,0,0,0,0,0.7861,0.7862,0,0.79,0.79,0.7901,0.7913,0.7913,0.7913,0.7913,0.795,0.7951,0.7952,0,0,0,0,0,0,0,0,0,0,0,0,0,0.7799,0.78,0.7861,0.7862,0.7862,0.79,0.79,0.7901,0.7913,0.7913,0.7913,0.7913,0.7949,0.7951,0.7952,0,0,0,0,0,0,0,0,0,0,0,0,0,0.783,0.78,0.7861,0.7873,0.7875,0.79,0.79,0.7901,0.7913,0.7913,0.7913,0.7912,0.7949,0.7951,0.7952,0.7968,0,0,0.7958,0.7958,0,0,0,0,0,0,0,0,0.7828,0.7833,0.7871,0.7872,0.7874,0.7901,0.7892,0.7923,0.7913,0.7898,0.7913,0.7912,0.7934,0.7937,0.7944,0.797,0.7971,0.7958,0.7959,0.796,0.796,0,0,0,0,0,0,0,0.7826,0.7831,0.7876,0.7871,0.7873,0.7876,0.7881,0.7898,0.7917,0.79,0.7901,0.7905,0.7935,0.7943,0.7945,0.7972,0.7958,0.7959,0.796,0.7961,0.8013,0.8014,0,0,0,0,0,0,0.7822,0.7829,0.7875,0.7878,0.785,0.7878,0.7882,0.7893,0.7917,0.792,0.7905,0.7906,0.794,0.7943,0.7947,0.7968,0.796,0.7961,0.7962,0.8013,0.8013,0.8014,0,0,0,0,0,0,0.7821,0.7826,0.7874,0.7854,0.786,0.7879,0.7891,0.7894,0.7902,0.7921,0.7924,0.791,0.794,0.7944,0.7963,0.7969,0.7962,0.7963,0.8013,0.8013,0.8014,0.8009,0,0,0,0,0,0,0.7819,0.7826,0.7832,0.7854,0.7861,0.789,0.7891,0.7895,0.7905,0.7906,0.7927,0.793,0.794,0.796,0.7965,0.7971,0.7965,0.8012,0.8013,0.8013,0.8009,0.801,0.801,0,0,0,0,0,0.7817,0.7828,0.7832,0.7837,0.7869,0.789,0.7894,0.7906,0.7905,0.7912,0.7925,0.7929,0.7968,0.7962,0.7967,0.7975,0.8012,0.8013,0.8013,0.8009,0.8009,0.801,0,0,0,0,0,0,0.7805,0.7831,0.7836,0.7855,0.787,0.7892,0.79,0.7906,0.7922,0.7922,0.7936,0.794,0.7958,0.7968,0.7961,0.7992,0.799,0.7992,0.7985,0.7986,0.7986,0.7984,0.7966,0,0,0,0,0,0.7805,0.782,0.7842,0.7856,0.7864,0.7881,0.789,0.7899,0.7915,0.7921,0.7935,0.795,0.7966,0.7976,0.7992,0.801,0.8016,0.8018,0.8018,0.8019,0.802,0.8033,0.8034,0.8017,0.8017,0.8016,0,0,0.7804,0.782,0.7829,0.7854,0.7867,0.7883,0.7886,0.7902,0.7914,0.7923,0.7943,0.7953,0.7971,0.7991,0.8,0.7999,0.8027,0.802,0.802,0.8022,0.8034,0.8035,0.8037,0.8017,0.8017,0.8017,0,0,0.7811,0.7825,0.7839,0.7853,0.7873,0.7884,0.7888,0.7909,0.7917,0.7937,0.7945,0.7959,0.7986,0.7999,0.8009,0.8023,0.8028,0.8027,0.8031,0.8043,0.8044,0.8045,0.8052,0.8054,0.8029,0.8029,0.8029,0,0.7808,0.7832,0.7846,0.7862,0.7873,0.7884,0.7899,0.7911,0.7935,0.7943,0.7942,0.7977,0.799,0.8013,0.8017,0.8024,0.803,0.8025,0.8043,0.8044,0.8046,0.8052,0.8054,0.8029,0.8029,0.8029,0.8029,0,0.7828,0.7844,0.7854,0.7878,0.789,0.7906,0.7922,0.7933,0.7941,0.7952,0.7973,0.7989,0.8009,0.8014,0.8021,0.8039,0.8039,0.804,0.8039,0.8047,0.8054,0.8056,0.8029,0.8029,0.8029,0.8029,0,0,0.7827,0.7861,0.7864,0.7876,0.79,0.7913,0.7929,0.795,0.796,0.7976,0.7991,0.8014,0.8016,0.8028,0.8036,0.8046,0.8059,0.8047,0.8048,0.805,0.8081,0.8081,0.8083,0.8062,0.8063,0.8063,0.808,0,0.7839,0.7869,0.7883,0.7907,0.7924,0.7935,0.795,0.7966,0.7978,0.7993,0.8006,0.8022,0.8023,0.8031,0.8041,0.8055,0.8065,0.8054,0.8076,0.8077,0.8073,0.8086,0.8086,0.8101,0.8083,0.8083,0.8083,0,0.7855,0.7874,0.79,0.7924,0.7932,0.7944,0.7965,0.798,0.7999,0.8007,0.8021,0.8029,0.8047,0.8045,0.807,0.8062,0.8072,0.808,0.8081,0.8085,0.8081,0.8091,0.8106,0.8109,0.8087,0.8087,0.8086,0,0.7854,0.7885,0.7906,0.7916,0.7944,0.7953,0.7965,0.7984,0.7996,0.8014,0.8022,0.8041,0.8052,0.8067,0.8081,0.8077,0.8106,0.8104,0.8113,0.8113,0.8119,0.8119,0.8137,0.8124,0.8124,0.8124,0.8124,0,0.7866,0.7882,0.7906,0.7919,0.7938,0.7954,0.7972,0.7984,0.8002,0.8017,0.8027,0.8042,0.8058,0.8075,0.8086,0.8106,0.811,0.8118,0.8121,0.8118,0.8117,0.8125,0.8125,0.8124,0.8124,0.8124,0.8124,0,0.7868,0.7885,0.7908,0.7934,0.794,0.7953,0.7975,0.7988,0.8001,0.8021,0.8026,0.8046,0.8066,0.8081,0.8107,0.8114,0.8136,0.8139,0.813,0.8132,0.8142,0.8141,0.8167,0.8172,0.8154,0.8154,0.8154,0,0.7874,0.7888,0.7915,0.7927,0.7939,0.7958,0.7971,0.7987,0.8,0.8024,0.8035,0.8056,0.8074,0.8106,0.8122,0.8142,0.8146,0.8154,0.8149,0.8146,0.8148,0.8148,0.815,0.8154,0.8155,0.8155,0.8155,0,0.7885,0.7893,0.7912,0.7934,0.795,0.7968,0.7986,0.7995,0.8015,0.8029,0.8051,0.8065,0.8093,0.8114,0.8136,0.8148,0.8155,0.8156,0.816,0.8157,0.8153,0.8157,0.8134,0.8156,0.8155,0.8155,0.8155,0.8155,0.789,0.7903,0.7926,0.7947,0.7963,0.798,0.7994,0.801,0.8028,0.8053,0.8061,0.8084,0.8104,0.8135,0.8148,0.8166,0.8166,0.817,0.8172,0.8173,0.8174,0.8149,0.817,0.817,0.817,0.817,0.817,0,0.7902,0.7918,0.7937,0.7964,0.7981,0.7987,0.8008,0.8022,0.8042,0.8061,0.8079,0.8105,0.8126,0.8145,0.8167,0.8178,0.8182,0.8184,0.8184,0.8187,0.8172,0.8167,0.818,0.818,0.818,0.818,0.818,0.818,0.7911,0.7934,0.7945,0.7977,0.7992,0.8015,0.8027,0.8044,0.8059,0.8088,0.8106,0.8119,0.8138,0.8162,0.8183,0.8188,0.8196,0.8197,0.8203,0.8189,0.8187,0.8186,0.8182,0.8198,0.8198,0.8216,0.8217,0.8217]}]]